Le nostre stazioni meteo in Italia

Pubblicità
Il mio iltempo24.it
Tyndrum, Gran Bretagna (99020): Temperatura & dewpoint: 22.05.2018 09:00:00 - 28.05.2018 09:00:00 (BST)Tyndrum, Gran Bretagna (99020): precipitazioni: 22.05.2018 09:00:00 - 28.05.2018 09:00:00 (BST)
Data & Tempo tt [°C] td [°C] rr [mm]
28.05.2018 09:00:00 - - -
28.05.2018 08:00:00 13,5 10,1 0,0
28.05.2018 07:00:00 8,4 8,2 -
28.05.2018 06:00:00 6,3 5,7 0,0
28.05.2018 05:00:00 6,5 5,4 0,0
28.05.2018 04:00:00 7,9 6,3 0,0
28.05.2018 03:00:00 9,8 7,1 0,0
28.05.2018 02:00:00 9,0 6,5 0,0
28.05.2018 01:00:00 11,2 6,5 0,0
28.05.2018 00:00:00 15,5 7,3 0,0
27.05.2018 23:00:00 16,3 6,5 0,0
27.05.2018 22:00:00 16,6 6,5 0,0
27.05.2018 21:00:00 18,2 6,9 0,0
27.05.2018 20:00:00 19,3 7,1 0,0
27.05.2018 19:00:00 20,7 7,3 0,0
27.05.2018 18:00:00 22,2 8,9 0,0
27.05.2018 17:00:00 22,8 9,9 0,0
27.05.2018 16:00:00 23,4 10,0 0,0
27.05.2018 15:00:00 23,2 10,2 0,0
27.05.2018 14:00:00 23,4 11,1 0,0
27.05.2018 13:00:00 22,9 10,2 0,0
27.05.2018 12:00:00 21,3 9,7 0,0
27.05.2018 11:00:00 19,3 9,2 0,0
27.05.2018 10:00:00 17,0 8,0 0,0
27.05.2018 09:00:00 16,5 7,5 0,0
27.05.2018 08:00:00 14,5 6,2 0,0
27.05.2018 07:00:00 12,4 4,8 0,0
27.05.2018 06:00:00 11,5 5,5 0,0
27.05.2018 05:00:00 11,9 5,7 0,0
27.05.2018 04:00:00 13,1 5,8 0,0
27.05.2018 03:00:00 13,2 5,2 0,0
27.05.2018 02:00:00 14,4 5,1 0,0
27.05.2018 01:00:00 14,1 5,6 0,0
27.05.2018 00:00:00 14,5 6,3 0,0
26.05.2018 23:00:00 14,9 6,2 0,0
26.05.2018 22:00:00 17,2 5,6 0,0
26.05.2018 21:00:00 17,3 6,4 0,0
26.05.2018 20:00:00 19,6 6,2 0,0
26.05.2018 19:00:00 21,8 7,5 0,0
26.05.2018 18:00:00 22,9 8,9 0,0
26.05.2018 17:00:00 23,4 8,7 0,0
26.05.2018 16:00:00 23,8 9,4 0,0
26.05.2018 15:00:00 23,6 8,4 0,0
26.05.2018 14:00:00 22,9 8,6 0,0
26.05.2018 13:00:00 20,8 8,5 0,0
26.05.2018 12:00:00 20,3 10,1 0,0
26.05.2018 11:00:00 19,0 10,5 0,0
26.05.2018 10:00:00 17,7 9,4 0,0
26.05.2018 09:00:00 17,9 9,7 0,0
26.05.2018 08:00:00 15,3 10,2 0,0
26.05.2018 07:00:00 9,3 8,0 0,0
26.05.2018 06:00:00 6,5 5,6 0,0
26.05.2018 05:00:00 6,4 5,2 0,0
26.05.2018 04:00:00 7,0 5,5 0,0
26.05.2018 03:00:00 7,4 5,6 0,0
26.05.2018 02:00:00 8,6 6,4 0,0
26.05.2018 01:00:00 10,0 6,8 0,0
26.05.2018 00:00:00 10,7 6,4 0,0
25.05.2018 23:00:00 12,6 5,7 0,0
25.05.2018 22:00:00 14,7 6,4 0,0
25.05.2018 21:00:00 18,1 7,3 0,0
25.05.2018 20:00:00 20,9 8,2 0,0
25.05.2018 19:00:00 22,3 7,8 0,0
25.05.2018 18:00:00 22,8 8,6 0,0
25.05.2018 17:00:00 23,1 9,7 0,0
25.05.2018 16:00:00 23,8 9,9 0,0
25.05.2018 15:00:00 22,6 9,0 0,0
25.05.2018 14:00:00 23,5 9,5 0,0
25.05.2018 13:00:00 23,2 9,3 0,0
25.05.2018 12:00:00 22,4 7,0 0,0
25.05.2018 11:00:00 20,5 10,0 0,0
25.05.2018 10:00:00 18,3 11,8 0,0
25.05.2018 09:00:00 14,1 9,2 0,0
25.05.2018 08:00:00 11,7 8,9 0,0
25.05.2018 07:00:00 7,6 7,5 0,0
25.05.2018 06:00:00 5,6 5,2 0,0
25.05.2018 05:00:00 5,5 4,9 0,0
25.05.2018 04:00:00 5,8 5,2 0,0
25.05.2018 03:00:00 6,8 6,2 0,0
25.05.2018 02:00:00 7,7 6,8 0,0
25.05.2018 01:00:00 8,8 7,4 0,0
25.05.2018 00:00:00 10,3 8,2 0,0
24.05.2018 23:00:00 12,5 9,0 0,0
24.05.2018 22:00:00 14,6 9,4 0,0
24.05.2018 21:00:00 17,1 9,9 0,0
24.05.2018 20:00:00 19,4 9,2 0,0
24.05.2018 19:00:00 20,8 7,4 0,0
24.05.2018 18:00:00 21,2 7,5 0,0
24.05.2018 17:00:00 20,9 8,0 0,0
24.05.2018 16:00:00 20,6 9,1 0,0
24.05.2018 15:00:00 20,2 8,9 0,0
24.05.2018 14:00:00 19,0 10,0 0,0
24.05.2018 13:00:00 16,8 10,0 0,0
24.05.2018 12:00:00 14,2 9,3 0,0
24.05.2018 11:00:00 13,4 8,8 0,0
24.05.2018 10:00:00 10,5 7,7 0,0
24.05.2018 09:00:00 8,2 6,1 0,0
24.05.2018 08:00:00 7,4 6,1 0,0
24.05.2018 07:00:00 6,9 6,0 0,0
24.05.2018 06:00:00 7,1 6,2 0,0
24.05.2018 05:00:00 7,0 6,0 0,0
24.05.2018 04:00:00 6,6 5,6 0,0
24.05.2018 03:00:00 6,3 5,0 0,0
24.05.2018 02:00:00 8,4 6,8 0,0
24.05.2018 01:00:00 9,3 7,0 0,0
24.05.2018 00:00:00 10,5 7,3 0,0
23.05.2018 23:00:00 9,8 7,4 0,0
23.05.2018 22:00:00 12,2 8,1 0,0
23.05.2018 21:00:00 14,7 8,7 0,0
23.05.2018 20:00:00 16,8 8,9 0,0
23.05.2018 19:00:00 18,3 9,5 0,0
23.05.2018 18:00:00 18,3 8,6 0,0
23.05.2018 17:00:00 18,3 9,4 0,0
23.05.2018 16:00:00 17,3 9,7 0,0
23.05.2018 15:00:00 16,9 10,2 0,0
23.05.2018 14:00:00 15,7 10,4 0,0
23.05.2018 13:00:00 13,9 9,2 0,0
23.05.2018 12:00:00 12,5 8,0 0,0
23.05.2018 11:00:00 11,7 7,9 0,0
23.05.2018 10:00:00 10,9 7,5 0,0
23.05.2018 09:00:00 10,1 6,8 0,0
23.05.2018 08:00:00 9,5 6,8 0,0
23.05.2018 07:00:00 9,1 7,6 0,0
23.05.2018 06:00:00 8,8 7,4 0,0
23.05.2018 05:00:00 8,6 7,6 0,0
23.05.2018 04:00:00 8,8 7,4 0,0
23.05.2018 03:00:00 9,0 7,3 0,0
23.05.2018 02:00:00 9,4 7,4 0,0
23.05.2018 01:00:00 9,8 7,5 0,0
23.05.2018 00:00:00 10,1 7,6 0,0
22.05.2018 23:00:00 10,8 7,9 0,0
22.05.2018 22:00:00 11,6 8,1 0,0
22.05.2018 21:00:00 12,2 8,8 0,0
22.05.2018 20:00:00 13,2 8,7 0,0
22.05.2018 19:00:00 13,5 8,8 0,0
22.05.2018 18:00:00 14,1 7,6 0,0
22.05.2018 17:00:00 14,1 7,4 0,0
22.05.2018 16:00:00 14,0 7,7 0,0
22.05.2018 15:00:00 14,0 7,0 0,0
22.05.2018 14:00:00 13,5 7,1 0,0
22.05.2018 13:00:00 13,5 6,9 0,0
22.05.2018 12:00:00 11,7 6,6 0,0
22.05.2018 11:00:00 10,4 7,4 0,0
22.05.2018 10:00:00 8,9 7,1 0,0
22.05.2018 09:00:00 8,1 6,4 0,0

tt = Temperatura
td = dewpoint
rr = precipitazioni

Stazioni seguenti

WeatherPro
AMSI
MeteoEarth